Overview Statistics Trail Chart Weather Telemetry Raw packets
 

This is the latest recevied weather packets stored in our database for station/object JA0BES-13. If no packets are shown the sender has not sent any weather packets the latest 10 day(s).

<< 14 15 16 17 18 19 20 >>
Time Temp. Humidity Pressure Rain* Wind** Luminosity Snow
1788317844 32.78° C 74% 1012.9 hPa 0 mm - - -
1788317243 32.22° C 77% 1013 hPa 0 mm - - -
1788316643 31.67° C 79% 1012.8 hPa 0 mm - - -
1788316042 31.67° C 78% 1012.8 hPa 0 mm - - -
1788315442 31.11° C 82% 1013 hPa 0 mm - - -
1788314842 31.11° C 81% 1013.1 hPa 0 mm - - -
1788314241 31.11° C 80% 1013.1 hPa 0 mm - - -
1788313641 31.11° C 82% 1013.1 hPa 0 mm - - -
1788313041 31.11° C 86% 1013.2 hPa 0 mm - - -
1788312440 30.56° C 86% 1013.3 hPa 0 mm - - -
1788311840 30.56° C 89% 1013.6 hPa 0 mm - - -
1788311239 30° C 92% 1013.7 hPa 0 mm - - -
1788310639 29.44° C 91% 1013.8 hPa 0 mm - - -
1788310039 29.44° C 98% 1013.8 hPa 0 mm - - -
1788309439 28.89° C 100% 1013.9 hPa 0 mm - - -
1788308838 28.89° C 100% 1014 hPa 0 mm - - -
1788308238 28.33° C 100% 1013.8 hPa 0 mm - - -
1788307637 27.78° C 100% 1014 hPa 0 mm - - -
1788307037 27.22° C 100% 1014.4 hPa 0 mm - - -
1788306437 27.22° C 100% 1014.5 hPa 0 mm - - -
1788305837 26.67° C 100% 1014.1 hPa 0 mm - - -
1788305236 26.11° C 100% 1014.2 hPa 0 mm - - -
1788304636 25.56° C 100% 1014 hPa 0 mm - - -
1788303435 25° C 100% 1014 hPa 0 mm - - -
1788302835 25° C 100% 1013.9 hPa 0 mm - - -

* Rain since midnight (hover to see other rain measurements)
** Current wind speed in m/s (hover to see current wind gust speed)